Location: Newark
(52.3500°N, 175.9667°E)
Time: 06:23:23
(UTC+00:00)

S-56A Canister/Altair - Pass Details

Date: 25 April 2021
Orbit: 631 x 2501 km, 38.9° (Epoch: 12 May)

Event Time Altitude Azimuth Distance (km) Brightness Sun altitude
Rises 08:57:16 0° 212° (SSW) 5,444 11.8 -11.9°
Reaches altitude 10° 09:02:29 10° 197° (SSW) 4,087 11.0 -12.5°
Maximum altitude 09:09:00 19° 158° (SSE) 2,926 9.9 -13.2°
Enters shadow 09:11:15 17° 139° (SE) 2,863 9.8 -13.5°
Drops below altitude 10° 09:14:10 10° 117° (ESE) 3,131 - -13.8°
Sets 09:17:27 0° 99° (E) 3,808 - -14.1°
